Regional Weather Roundup
Issued by NWS

Home | Current Version | Previous Version | Text Only | Print | Product List | Glossary On
Versions: 1 2 3 4 5 6 7 8 9 10 11 12 13 14 15 16 17 18 19 20 21 22 23 24 25 26 27 28 29 30 31 32 33 34 35 36 37 38 39 40 41 42 43 44 45 46 47 48 49 50
000
ASUS42 KFFC 162110
RWRGA
WEATHER ROUNDUP FOR GEORGIA
NATIONAL WEATHER SERVICE PEACHTREE CITY GA
500 PM EDT MON OCT 16 2017

NOTE: "FAIR" INDICATES FEW OR NO CLOUDS BELOW 12,000 FEET WITH NO
SIGNIFICANT WEATHER AND/OR OBSTRUCTIONS TO VISIBILITY.

* = USE WITH CAUTION. THE STATIONS MARKED WITH AN ASTERISK MAY NOT
REPORT WEATHER SUCH AS PRECIPITATION, FOG, OR THUNDER AND ARE NOT
QUALITY CONTROLLED BY NWS.

THE REMARK "TC" DENOTES TEMPERATURE READING IN DEGREES CELSIUS.

GAZ001>058-162200-
NORTH GEORGIA

CITY           SKY/WX    TMP DP  RH WIND       PRES   REMARKS
ATLANTA        MOSUNNY   68  46  45 NW14G22   30.09S
ATHENS         SUNNY     75  54  47 VRB7      30.04R
CHAMBLEE       SUNNY     68  47  46 NW14      30.09S
PEACHTREE CITY SUNNY     70  44  39 N17       30.09F
ROME           SUNNY     67  45  45 N21G26    30.14F
WEST ATLANTA   SUNNY     67  48  50 N13G23    30.10S
GAINESVILLE    SUNNY     71  45  39 NW12      30.10R
CARTERSVILLE   SUNNY     66  46  48 N8G21     30.14F


CITY           SKY/WX    TMP DP  RH WIND       PRES   REMARKS
DALTON*        SUNNY     63  46  55 N15G21    30.18S
LAWRENCEVILLE* SUNNY     70  44  39 NW14G20   30.09R
MARIETTA       MOSUNNY   67  46  47 NW13G20   30.10S
KENNESAW*      SUNNY     64  45  49 N12G20    30.13S
CANTON*        SUNNY     66  45  45 NW10G24   30.14S
$$

GAZ059>098-102>109-162200-
CENTRAL GEORGIA

CITY           SKY/WX    TMP DP  RH WIND       PRES   REMARKS
AUGUSTA-BUSH   MOSUNNY   80  66  62 NE13      29.99R
AUGUSTA-DANIEL MOSUNNY   78  64  61 N10       30.01R
COLUMBUS       SUNNY     74  48  39 NE10      30.05S
MACON          SUNNY     72  52  49 N13       30.03R
ROBINS AFB     SUNNY     72  53  50 N12       30.02R


CITY           SKY/WX    TMP DP  RH WIND       PRES   REMARKS
LAGRANGE*      SUNNY     71  48  45 N8        30.09S
SYLVANIA*      CLOUDY    81  69  67 N9        29.97R
MILLEDGEVILLE* SUNNY     77  57  50 N5        30.03R
$$

GAZ099>101-110>166-162200-
SOUTH GEORGIA

CITY           SKY/WX    TMP DP  RH WIND       PRES   REMARKS
SAVANNAH       CLOUDY    76  72  87 N6        29.95R
VALDOSTA       PTSUNNY   80  70  71 VRB7      29.95R
ALMA           PTSUNNY   83  71  67 N8        29.95S
ST SIMONS      CLOUDY    83  73  72 SE7       29.92S
FT STEWART     CLOUDY    77  72  83 CALM      29.92F
ALBANY         CLOUDY    79  63  57 N13       30.01F
HUNTER AFB     PTSUNNY   75  72  89 NW6       29.91F
MOODY AFB      PTSUNNY   80  70  71 N8        29.94S
BRUNSWICK      CLOUDY    86  64  48 NW3       29.93S


CITY           SKY/WX    TMP DP  RH WIND       PRES   REMARKS
BAINBRIDGE*    CLOUDY    82  72  69 N12G17    29.99S
MOULTRIE*      CLOUDY    79  70  73 N12       29.97F
VIDALIA*       CLOUDY    82  70  65 N8        29.96F
WAYCROSS*      DRIZZLE   80  70  70 W6        29.95R
DOUGLAS*       MOSUNNY   81  68  65 N12       29.96F
$$




USA.gov is the U.S. government's official web portal to all federal, state and local government web resources and services.